Date String (YYYY-MM-DD hh:mm:ss) UTC,Instrument flags,Ambient pressure (hPa),Sample flow (lpm),Bypass flow (lpm),Sample temperature (°C),Ambient temperature (°C),ASC tube jacket temperature (°C),LED temperature (°C),Box temperature (°C),Sample RH (%),Span deviation,Mass concentration (μg/m³),Mass concentration (μg/m³),Mass concentration (μg/m³)
DateTimeUTC,F1_M11,P_M11,Q1_M11,Q2_M11,T1_M11,T2_M11,T3_M11,T4_M11,T5_M11,U1_M11,ZSPAN_M11,X2_M11,X0_M11,X1_M11
2022-11-20 12:00:00,,0828.1,4.99,0.00,22.4,22.3,00.0,31.2,24.4,08.5,0000.0,0002.46,0005.92,0002.13
2022-11-20 12:01:00,,0828.0,5.00,0.00,22.5,22.3,00.0,31.2,24.4,08.3,0000.0,0002.38,0005.91,0002.05
2022-11-20 12:02:00,,0828.0,4.99,0.00,22.5,22.0,00.0,31.3,24.4,08.3,0000.0,0002.34,0006.13,0002.00
2022-11-20 12:03:00,,0828.0,5.02,0.00,22.5,21.7,00.0,31.3,24.4,08.4,0000.0,0002.30,0006.09,0001.96
2022-11-20 12:04:00,,0828.0,4.98,0.00,22.4,21.5,00.0,31.3,24.3,08.4,0000.0,0002.28,0005.83,0001.95
2022-11-20 12:05:00,,0828.0,5.02,0.00,22.4,21.3,00.0,31.3,24.3,08.3,0000.0,0002.20,0004.68,0001.90
2022-11-20 12:06:00,,0828.0,4.98,0.00,22.4,21.2,00.0,31.3,24.2,08.3,0000.0,0002.13,0004.15,0001.85
2022-11-20 12:07:00,,0828.0,5.01,0.00,22.4,21.1,00.0,31.3,24.2,08.3,0000.0,0002.07,0003.28,0001.80
2022-11-20 12:08:00,,0828.1,4.99,0.00,22.4,20.9,00.0,31.3,24.2,08.3,0000.0,0001.98,0003.16,0001.71
2022-11-20 12:09:00,,0828.1,5.00,0.00,22.3,20.9,00.0,31.3,24.1,08.3,0000.0,0001.90,0003.07,0001.63
2022-11-20 12:10:00,,0828.1,5.01,0.00,22.3,20.8,00.0,31.3,24.1,08.3,0000.0,0001.83,0003.00,0001.53
2022-11-20 12:11:00,,0828.1,4.98,0.00,22.3,20.8,00.0,31.3,24.1,08.2,0000.0,0001.76,0003.02,0001.45
2022-11-20 12:12:00,,0828.1,5.01,0.00,22.3,20.8,00.0,31.3,24.0,08.0,0000.0,0001.70,0002.99,0001.40
2022-11-20 12:13:00,,0828.0,4.98,0.00,22.2,20.7,00.0,31.2,24.0,07.5,0000.0,0001.62,0002.57,0001.34
2022-11-20 12:14:00,,0828.0,5.00,0.00,22.2,20.8,00.0,31.2,24.0,06.9,0000.0,0001.56,0002.49,0001.26
2022-11-20 12:15:00,,0828.0,5.01,0.00,22.3,21.5,00.0,31.2,24.1,06.8,0000.0,0001.49,0002.36,0001.18
2022-11-20 12:16:00,,0828.0,5.00,0.00,22.4,22.4,00.0,31.2,24.4,06.8,0000.0,0001.46,0002.38,0001.12
2022-11-20 12:17:00,,0828.0,5.00,0.00,22.4,22.3,00.0,31.2,24.4,07.0,0000.0,0001.41,0002.26,0001.09
2022-11-20 12:18:00,,0828.0,5.00,0.00,22.4,21.9,00.0,31.2,24.4,07.0,0000.0,0001.34,0002.17,0001.04
2022-11-20 12:19:00,,0828.0,5.00,0.00,22.4,21.6,00.0,31.3,24.3,07.0,0000.0,0001.30,0002.13,0001.00
2022-11-20 12:20:00,,0828.0,5.01,0.00,22.4,21.4,00.0,31.3,24.3,06.7,0000.0,0001.27,0002.08,0000.97
2022-11-20 12:21:00,,0828.0,4.98,0.00,22.4,21.2,00.0,31.3,24.2,06.5,0000.0,0001.21,0002.35,0000.93
2022-11-20 12:22:00,,0828.1,5.01,0.00,22.4,21.1,00.0,31.3,24.2,06.5,0000.0,0001.13,0002.51,0000.90
2022-11-20 12:23:00,,0828.0,5.01,0.00,22.4,21.0,00.0,31.3,24.2,06.4,0000.0,0001.08,0002.32,0000.87
2022-11-20 12:24:00,,0828.0,5.00,0.00,22.3,20.9,00.0,31.3,24.2,06.4,0000.0,0001.09,0002.34,0000.87
2022-11-20 12:25:00,,0828.0,4.99,0.00,22.3,20.9,00.0,31.3,24.1,06.9,0000.0,0001.08,0002.29,0000.88
2022-11-20 12:26:00,,0828.0,5.02,0.00,22.3,20.9,00.0,31.3,24.1,07.1,0000.0,0001.08,0002.26,0000.88
2022-11-20 12:27:00,,0828.0,5.01,0.00,22.3,20.8,00.0,31.2,24.0,07.2,0000.0,0001.09,0002.24,0000.90
2022-11-20 12:28:00,,0828.0,4.99,0.00,22.3,20.7,00.0,31.2,24.0,07.2,0000.0,0001.11,0002.31,0000.92
2022-11-20 12:29:00,,0828.0,5.01,0.00,22.2,20.7,00.0,31.2,23.9,07.1,0000.0,0001.14,0003.30,0000.95
2022-11-20 12:30:00,,0827.9,5.01,0.00,22.2,21.0,00.0,31.2,24.0,06.9,0000.0,0001.16,0003.68,0000.96
2022-11-20 12:31:00,,0827.8,4.99,0.00,22.3,21.9,00.0,31.1,24.2,06.7,0000.0,0001.17,0003.73,0000.97
2022-11-20 12:32:00,,0827.9,5.01,0.00,22.4,22.4,00.0,31.2,24.4,06.6,0000.0,0001.19,0003.51,0000.98
2022-11-20 12:33:00,,0827.9,5.00,0.00,22.4,22.1,00.0,31.2,24.4,06.4,0000.0,0001.21,0003.23,0001.00
2022-11-20 12:34:00,,0827.9,5.01,0.00,22.4,21.7,00.0,31.2,24.3,06.3,0000.0,0001.18,0003.16,0001.00
2022-11-20 12:35:00,,0827.9,4.99,0.00,22.4,21.3,00.0,31.3,24.2,06.4,0000.0,0001.20,0003.21,0001.01
2022-11-20 12:36:00,,0827.8,4.99,0.00,22.3,20.9,00.0,31.3,24.0,06.8,0000.0,0001.21,0003.22,0001.01
2022-11-20 12:37:00,,0827.7,4.99,0.00,22.2,20.5,00.0,31.2,23.9,06.8,0000.0,0001.23,0003.35,0001.01
2022-11-20 12:38:00,,0827.7,5.00,0.00,22.2,20.2,00.0,31.2,23.8,06.5,0000.0,0001.20,0004.10,0001.00
2022-11-20 12:39:00,,0827.7,5.01,0.00,22.1,20.0,00.0,31.2,23.7,06.5,0000.0,0001.16,0003.97,0000.97
2022-11-20 12:40:00,,0827.7,5.01,0.00,22.0,19.8,00.0,31.2,23.6,06.7,0000.0,0001.13,0003.18,0000.95
2022-11-20 12:41:00,,0827.7,4.99,0.00,21.9,19.7,00.0,31.1,23.5,06.4,0000.0,0001.10,0002.54,0000.93
2022-11-20 12:42:00,,0827.7,4.99,0.00,21.9,19.7,00.0,31.1,23.5,06.3,0000.0,0001.08,0002.61,0000.92
2022-11-20 12:43:00,,0827.7,5.02,0.00,21.9,20.4,00.0,31.0,23.6,06.4,0000.0,0001.06,0002.43,0000.92
2022-11-20 12:44:00,,0827.8,4.99,0.00,22.0,21.6,00.0,31.0,23.8,06.4,0000.0,0001.05,0002.36,0000.91
2022-11-20 12:45:00,,0827.8,4.99,0.00,22.1,21.9,00.0,31.0,24.0,06.3,0000.0,0001.06,0002.40,0000.91
2022-11-20 12:46:00,,0827.9,5.01,0.00,22.1,21.6,00.0,31.0,24.0,06.3,0000.0,0001.06,0002.38,0000.91
2022-11-20 12:47:00,,0827.9,5.00,0.00,22.1,21.3,00.0,31.1,24.0,06.2,0000.0,0001.04,0002.34,0000.89
2022-11-20 12:48:00,,0827.9,4.98,0.00,22.1,21.0,00.0,31.1,23.9,06.2,0000.0,0001.02,0002.35,0000.88
2022-11-20 12:49:00,,0827.9,5.01,0.00,22.1,20.9,00.0,31.1,23.9,06.2,0000.0,0001.04,0001.57,0000.88
2022-11-20 12:50:00,,0827.9,5.01,0.00,22.1,20.9,00.0,31.1,23.9,06.2,0000.0,0001.05,0001.57,0000.88
2022-11-20 12:51:00,,0827.9,5.00,0.00,22.1,20.8,00.0,31.1,23.9,06.2,0000.0,0001.03,0001.54,0000.86
2022-11-20 12:52:00,,0828.0,5.00,0.00,22.1,20.8,00.0,31.1,23.9,06.2,0000.0,0001.03,0001.55,0000.87
2022-11-20 12:53:00,,0827.9,5.01,0.00,22.1,20.7,00.0,31.0,23.9,06.4,0000.0,0001.03,0001.45,0000.87
2022-11-20 12:54:00,,0827.9,5.00,0.00,22.1,20.6,00.0,31.0,23.9,06.4,0000.0,0001.04,0001.46,0000.88
2022-11-20 12:55:00,,0827.9,4.99,0.00,22.0,20.5,00.0,31.0,23.9,06.4,0000.0,0001.03,0001.45,0000.88
2022-11-20 12:56:00,,0828.0,5.01,0.00,22.0,20.4,00.0,31.0,23.8,06.5,0000.0,0001.02,0001.45,0000.87
2022-11-20 12:57:00,,0827.9,5.01,0.00,22.0,20.3,00.0,31.0,23.8,06.7,0000.0,0001.03,0001.46,0000.89
2022-11-20 12:58:00,,0828.0,4.99,0.00,22.0,20.2,00.0,31.0,23.8,07.0,0000.0,0001.06,0001.50,0000.90
2022-11-20 12:59:00,,0828.0,5.02,0.00,22.0,20.9,00.0,30.9,23.9,07.6,0000.0,0001.09,0001.53,0000.94
